Location: Eaton
(41.3139°N, 82.0207°W)
Time: 07:41:04
(UTC+00:00)

DELTA 2 R/B (1) - Visible Passes

Search period start: 28 October 2021 00:00
Search period end: 07 November 2021 00:00
Orbit: 790 x 803 km, 39.6° (Epoch: 27 October)

Date Brightness Start Highest point End Pass type
(mag) Time Alt. Az. Time Alt. Az. Time Alt. Az.
28 Oct 4.7 01:02:10 10° SW 01:05:42 34° SSW 01:05:42 34° SSW visible
29 Oct 4.0 00:31:18 10° SW 00:36:33 44° SSE 00:36:33 44° SSE visible
29 Oct 6.4 02:17:10 10° W 02:17:19 11° W 02:17:19 11° W visible
30 Oct 4.2 00:00:25 10° SW 00:05:39 41° SSE 00:07:21 33° ESE visible
30 Oct 5.7 01:46:12 10° WSW 01:48:07 22° WSW 01:48:07 22° WSW visible
30 Oct 4.3 23:29:33 10° SW 23:34:43 39° SSE 23:38:06 20° E visible
31 Oct 4.6 01:15:15 10° WSW 01:18:52 41° WSW 01:18:52 41° WSW visible
31 Oct 4.5 22:58:42 10° SW 23:03:48 37° SSE 23:08:48 10° E visible
01 Nov 3.6 00:44:18 10° WSW 00:49:34 69° SSW 00:49:34 69° SSW visible
02 Nov 3.6 00:13:21 10° WSW 00:18:55 69° S 00:20:14 51° ESE visible
02 Nov 6.0 01:59:41 10° W 02:01:00 18° W 02:01:00 18° W visible
02 Nov 3.7 23:42:24 10° WSW 23:47:58 67° S 23:50:54 28° E visible
03 Nov 5.1 01:28:43 10° W 01:31:39 32° W 01:31:39 32° W visible
03 Nov 3.8 23:11:28 10° WSW 23:17:01 65° SSE 23:21:33 16° E visible
04 Nov 4.0 00:57:45 10° W 01:02:18 57° WSW 01:02:18 57° WSW visible
04 Nov 3.9 22:40:32 10° WSW 22:46:04 63° SSE 22:51:37 10° E visible
05 Nov 3.5 00:26:47 10° W 00:32:23 74° S 00:32:58 67° SE visible
05 Nov 6.4 02:13:16 10° W 02:13:43 12° W 02:13:43 12° W visible
05 Nov 3.6 23:55:50 10° W 00:01:26 75° S 00:03:38 38° ESE visible
06 Nov 5.7 01:42:17 10° W 01:44:24 22° W 01:44:24 22° W visible
06 Nov 3.7 23:24:51 10° W 23:30:28 76° S 23:34:21 20° E visible
